This demonstration page uses our WeatherBlox Daily Observations layout. Learn more.

Left ArrowRight Arrow

Hourly Observations for September 4, 2020

Temp ( °F °C ) Dew Point ( °F °C ) Humidity (%) Winds ( mph kmh ) Pressure ( in mb ) Visibility ( mi km ) Precip ( " mm )
12:15 am 00:15 Clear 57 14 46 7.8 66 66 S 3 6 30.14 1021 10 16 N/A
12:35 am 00:35 Clear 55 13 46 7.8 71 71 N N/A 30.14 1021 10 16 N/A
12:55 am 00:55 Clear 58 14.3 45 7 62 62 S 3 6 30.15 1021 10 16 N/A
1:15 am 01:15 Clear 58 14.4 44 6.9 61 61 S 5 7 30.13 1020 10 16 N/A
1:35 am 01:35 Clear 58 14.2 45 7 62 62 S 7 11 30.15 1021 10 16 N/A
1:55 am 01:55 Clear 58 14.2 45 7.2 63 63 S 7 11 30.14 1021 10 16 N/A
2:15 am 02:15 Clear 57 13.7 45 7.2 65 65 S 7 11 30.14 1021 10 16 N/A
2:35 am 02:35 Clear 58 14.5 45 7.1 61 61 S 6 9 30.13 1020 10 16 N/A
2:55 am 02:55 Clear 57 14 45 7.4 65 65 SSW 6 9 30.13 1020 10 16 N/A
3:15 am 03:15 Clear 56 13.5 46 7.7 68 68 SSW 5 7 30.13 1020 10 16 N/A
3:35 am 03:35 Clear 56 13.2 47 8.3 72 72 SSW 6 9 30.14 1021 10 16 N/A
3:55 am 03:55 Clear 55 12.8 47 8.5 75 75 SSW 7 11 30.15 1021 10 16 N/A
4:15 am 04:15 Clear 56 13.3 47 8.5 73 73 SSW 7 11 30.14 1021 10 16 N/A
4:35 am 04:35 Clear 55 12.7 47 8.2 74 74 SSW 6 9 30.14 1021 10 16 N/A
4:55 am 04:55 Clear 56 13.2 47 8.1 71 71 SW 6 9 30.13 1020 10 16 N/A
5:15 am 05:15 Clear 55 12.5 47 8.1 75 75 SW 6 9 30.14 1021 10 16 N/A
5:35 am 05:35 Clear 55 12.7 46 8 73 73 SW 7 11 30.15 1021 10 16 N/A
5:55 am 05:55 Clear 54 12.4 46 7.7 73 73 SW 8 13 30.14 1021 10 16 N/A
6:15 am 06:15 Clear 55 12.6 46 7.7 72 72 SW 6 9 30.15 1021 10 16 N/A
6:35 am 06:35 Clear 54 12.2 46 7.6 74 74 SW 6 9 30.15 1021 10 16 N/A
6:55 am 06:55 Clear 54 12 46 7.6 75 75 SW 7 11 30.16 1021 10 16 N/A
7:15 am 07:15 Sunny 53 11.8 46 7.6 76 76 SW 6 9 30.16 1021 10 16 N/A
7:35 am 07:35 Sunny 54 12.4 46 7.6 73 73 SSW 7 11 30.18 1022 10 16 N/A
7:55 am 07:55 Sunny 55 12.5 46 8 74 74 SW 7 11 30.18 1022 10 16 N/A
8:15 am 08:15 Sunny 57 14.1 47 8.1 67 67 SW 6 9 30.18 1022 10 16 N/A
8:35 am 08:35 Sunny 60 15.3 47 8.3 63 63 SW 7 11 30.17 1022 10 16 N/A
8:55 am 08:55 Sunny 62 16.4 47 8.5 60 60 SW 9 15 30.16 1021 10 16 N/A
9:15 am 09:15 Sunny 64 17.8 47 8.6 55 55 SW 10 17 30.15 1021 10 16 N/A
9:35 am 09:35 Sunny 66 19 47 8.6 51 51 SSW 8 13 30.14 1021 10 16 N/A
9:55 am 09:55 Sunny 68 20.1 47 8.6 48 48 SW 9 15 30.14 1021 10 16 N/A
10:15 am 10:15 Sunny 70 21.1 47 8.4 44 44 SW 13 20 30.13 1020 10 16 N/A
10:35 am 10:35 Sunny 71 21.8 47 8.4 42 42 SW 14 22 30.12 1020 10 16 N/A
10:55 am 10:55 Sunny 73 22.9 47 8.6 40 40 WSW 8 13 30.11 1020 10 16 N/A
11:15 am 11:15 Sunny 74 23.3 47 8.2 38 38 SW 9 15 30.12 1020 10 16 N/A
11:35 am 11:35 Sunny 76 24.5 47 8.1 35 35 SW 10 17 30.11 1020 10 16 N/A
11:55 am 11:55 Sunny 77 25.1 46 7.5 33 33 SW 12 19 30.09 1019 10 16 N/A
12:15 pm 12:15 Sunny 79 26.1 46 7.8 31 31 SSW 9 15 30.09 1019 10 16 N/A
12:35 pm 12:35 Sunny 80 26.9 44 6.7 28 28 SW 8 13 30.07 1018 10 16 N/A
12:55 pm 12:55 Sunny 82 28 44 6.5 26 26 SSW 10 17 30.05 1018 10 16 N/A
1:15 pm 13:15 Sunny 82 27.9 43 6.2 25 25 SSW 5 7 30.04 1017 10 16 N/A
1:35 pm 13:35 Sunny 84 28.8 42 5.7 23 23 SSW 9 15 30.04 1017 10 16 N/A
1:55 pm 13:55 Sunny 84 28.7 42 5.7 23 23 SW 7 11 30.04 1017 10 16 N/A
2:15 pm 14:15 Sunny 85 29.5 44 6.5 23 23 SSW 3 6 30.03 1017 10 16 N/A
2:35 pm 14:35 Sunny 86 29.8 43 5.9 22 22 SSW 8 13 30.03 1017 10 16 N/A
2:55 pm 14:55 Sunny 87 30.3 44 6.4 22 22 SSW 7 11 30.01 1016 10 16 N/A
3:15 pm 15:15 Sunny 87 30.5 43 6.1 21 21 SSW 6 9 30.00 1016 10 16 N/A
3:35 pm 15:35 Sunny 88 31 43 6 21 21 SSW 5 7 30.00 1016 10 16 N/A
3:55 pm 15:55 Sunny 87 30.8 43 5.9 21 21 SW 7 11 29.99 1016 10 16 N/A
4:15 pm 16:15 Sunny 89 31.5 44 6.7 21 21 SSW 9 15 29.99 1015 10 16 N/A
4:35 pm 16:35 Sunny 89 31.5 43 6.3 21 21 SSW 8 13 29.98 1015 10 16 N/A
4:55 pm 16:55 Sunny 89 31.7 43 6.1 20 20 S 7 11 29.96 1015 10 16 N/A
5:15 pm 17:15 Sunny 89 31.8 44 6.6 21 21 S 5 7 29.96 1015 10 16 N/A
5:35 pm 17:35 Sunny 89 31.7 46 8 23 23 S 7 11 29.96 1015 10 16 N/A
5:55 pm 17:55 Sunny 88 31.3 46 7.9 23 23 SE 8 13 29.96 1014 10 16 N/A
6:15 pm 18:15 Sunny 88 30.9 48 8.9 25 25 SSE 6 9 29.96 1015 10 16 N/A
6:35 pm 18:35 Sunny 87 30.3 49 9.7 28 28 SSE 7 11 29.96 1015 10 16 N/A
6:55 pm 18:55 Sunny 84 29.1 52 11 33 33 SSE 6 9 29.97 1015 10 16 N/A
7:15 pm 19:15 Sunny 82 27.9 52 11.3 36 36 SSE 6 9 29.98 1015 10 16 N/A
7:35 pm 19:35 Sunny 80 26.5 54 12 41 41 SSE 5 7 29.99 1016 10 16 N/A
7:55 pm 19:55 Sunny 76 24.4 54 12.2 47 47 SE 6 9 30.02 1017 10 16 N/A
8:15 pm 20:15 Clear 73 22.8 54 12 51 51 ESE 6 9 30.04 1017 10 16 N/A
8:35 pm 20:35 Clear 71 21.6 54 12.4 56 56 SSE 6 9 30.05 1018 10 16 N/A
8:55 pm 20:55 Clear 70 21.1 54 12.3 57 57 SE 5 7 30.07 1018 10 16 N/A
9:15 pm 21:15 Clear 69 20.6 52 11.3 55 55 SSE 5 7 30.08 1019 10 16 N/A
9:35 pm 21:35 Clear 69 20.6 52 11.3 55 55 SSE 3 6 30.09 1019 10 16 N/A
9:55 pm 21:55 Clear 67 19.3 52 11.1 59 59 SE 5 7 30.11 1020 10 16 N/A
10:15 pm 22:15 Clear 64 18 52 11.2 65 65 N N/A 30.13 1020 10 16 N/A
10:35 pm 22:35 Clear 65 18.5 53 11.5 64 64 N N/A 30.13 1020 10 16 N/A
10:55 pm 22:55 Clear 63 17 52 11.1 68 68 E 5 7 30.15 1021 10 16 N/A
11:15 pm 23:15 Clear 62 16.7 52 11.1 70 70 ESE 5 7 30.15 1021 10 16 N/A
11:35 pm 23:35 Clear 63 17.2 54 12 72 72 SE 3 6 30.16 1021 10 16 N/A
11:55 pm 23:55 Clear 61 16.2 53 11.4 73 73 ESE 5 7 30.17 1022 10 16 N/A

Powered by AerisWeather